Date String (YYYY-MM-DD hh:mm:ss) UTC,Instrument flags,Ambient pressure (hPa),Sample flow (lpm),Bypass flow (lpm),Sample temperature (°C),Ambient temperature (°C),ASC tube jacket temperature (°C),LED temperature (°C),Box temperature (°C),Sample RH (%),Span deviation,Mass concentration (μg/m³),Mass concentration (μg/m³),Mass concentration (μg/m³)
DateTimeUTC,F1_M11,P_M11,Q1_M11,Q2_M11,T1_M11,T2_M11,T3_M11,T4_M11,T5_M11,U1_M11,ZSPAN_M11,X0_M11,X2_M11,X1_M11
2022-03-24 22:00:00,,0824.2,5.00,0.00,28.8,27.9,00.0,37.7,30.6,08.3,0000.0,0004.88,0001.64,0000.92
2022-03-24 22:01:00,,0824.2,5.01,0.00,28.8,27.9,00.0,37.7,30.6,08.1,0000.0,0004.97,0001.69,0000.94
2022-03-24 22:02:00,,0824.2,4.99,0.00,28.8,28.0,00.0,37.7,30.6,08.3,0000.0,0005.03,0001.74,0000.94
2022-03-24 22:03:00,,0824.2,5.01,0.00,28.8,28.0,00.0,37.7,30.5,08.4,0000.0,0005.13,0001.78,0000.94
2022-03-24 22:04:00,,0824.1,5.00,0.00,28.8,28.0,00.0,37.7,30.5,08.4,0000.0,0004.99,0001.84,0000.94
2022-03-24 22:05:00,,0824.2,4.99,0.00,28.8,28.0,00.0,37.7,30.6,08.4,0000.0,0004.90,0001.80,0000.93
2022-03-24 22:06:00,,0824.2,4.99,0.00,28.8,28.0,00.0,37.7,30.6,08.4,0000.0,0005.05,0001.86,0000.92
2022-03-24 22:07:00,,0824.1,5.01,0.00,28.8,28.0,00.0,37.7,30.6,08.5,0000.0,0005.17,0001.87,0000.92
2022-03-24 22:08:00,,0824.1,4.99,0.00,28.8,28.0,00.0,37.7,30.6,08.3,0000.0,0004.36,0001.79,0000.91
2022-03-24 22:09:00,,0824.2,4.99,0.00,28.8,28.0,00.0,37.7,30.6,08.4,0000.0,0003.64,0001.77,0000.91
2022-03-24 22:10:00,,0824.1,5.01,0.00,28.8,28.0,00.0,37.8,30.6,08.4,0000.0,0003.70,0001.81,0000.92
2022-03-24 22:11:00,,0824.1,4.99,0.00,28.9,28.0,00.0,37.8,30.7,08.5,0000.0,0003.82,0001.85,0000.92
2022-03-24 22:12:00,,0824.1,5.00,0.00,28.9,28.0,00.0,37.8,30.6,08.6,0000.0,0003.89,0001.85,0000.91
2022-03-24 22:13:00,,0824.1,5.02,0.00,28.9,28.0,00.0,37.8,30.6,08.5,0000.0,0003.71,0001.78,0000.91
2022-03-24 22:14:00,,0824.2,4.99,0.00,28.9,28.0,00.0,37.8,30.6,08.6,0000.0,0003.55,0001.71,0000.91
2022-03-24 22:15:00,,0824.1,5.00,0.00,28.9,28.0,00.0,37.8,30.6,08.4,0000.0,0003.41,0001.68,0000.91
2022-03-24 22:16:00,,0824.2,5.00,0.00,28.9,28.0,00.0,37.8,30.6,08.4,0000.0,0004.15,0001.73,0000.92
2022-03-24 22:17:00,,0824.2,5.01,0.00,28.9,28.0,00.0,37.8,30.7,08.3,0000.0,0003.97,0001.63,0000.92
2022-03-24 22:18:00,,0824.1,4.99,0.00,28.9,28.0,00.0,37.8,30.6,08.4,0000.0,0003.83,0001.62,0000.92
2022-03-24 22:19:00,,0824.2,4.99,0.00,28.9,28.0,00.0,37.8,30.6,08.4,0000.0,0004.01,0001.67,0000.92
2022-03-24 22:20:00,,0824.1,5.01,0.00,28.9,28.0,00.0,37.8,30.6,08.6,0000.0,0004.04,0001.65,0000.90
2022-03-24 22:21:00,,0824.1,4.99,0.00,28.9,28.1,00.0,37.8,30.7,08.3,0000.0,0004.11,0001.67,0000.89
2022-03-24 22:22:00,,0824.2,4.99,0.00,28.9,28.1,00.0,37.8,30.7,08.4,0000.0,0004.08,0001.66,0000.88
2022-03-24 22:23:00,,0824.2,5.00,0.00,28.9,28.1,00.0,37.8,30.7,08.5,0000.0,0004.08,0001.70,0000.89
2022-03-24 22:24:00,,0824.1,5.00,0.00,28.9,28.1,00.0,37.8,30.6,08.4,0000.0,0004.06,0001.70,0000.88
2022-03-24 22:25:00,,0824.2,5.00,0.00,28.9,28.1,00.0,37.8,30.7,08.6,0000.0,0004.09,0001.71,0000.89
2022-03-24 22:26:00,,0824.1,4.99,0.00,28.9,28.1,00.0,37.8,30.6,08.9,0000.0,0004.19,0001.74,0000.90
2022-03-24 22:27:00,,0824.1,5.02,0.00,28.9,28.1,00.0,37.8,30.7,08.6,0000.0,0003.70,0001.74,0000.90
2022-03-24 22:28:00,,0824.1,4.99,0.00,28.9,28.1,00.0,37.8,30.7,08.6,0000.0,0003.78,0001.84,0000.92
2022-03-24 22:29:00,,0824.2,4.99,0.00,29.0,28.1,00.0,37.9,30.7,08.5,0000.0,0004.16,0001.94,0000.93
2022-03-24 22:30:00,,0824.1,5.01,0.00,29.0,28.1,00.0,37.9,30.7,08.4,0000.0,0004.13,0001.93,0000.93
2022-03-24 22:31:00,,0824.2,5.00,0.00,28.9,28.1,00.0,37.9,30.7,08.4,0000.0,0003.96,0001.92,0000.93
2022-03-24 22:32:00,,0824.2,4.99,0.00,29.0,28.1,00.0,37.9,30.8,08.4,0000.0,0003.93,0001.91,0000.95
2022-03-24 22:33:00,,0824.2,5.00,0.00,29.0,28.1,00.0,37.9,30.7,08.4,0000.0,0003.84,0001.89,0000.96
2022-03-24 22:34:00,,0824.3,5.01,0.00,29.0,28.1,00.0,37.9,30.7,08.2,0000.0,0003.95,0001.91,0000.96
2022-03-24 22:35:00,,0824.2,5.02,0.00,29.0,28.1,00.0,37.9,30.7,08.7,0000.0,0004.25,0002.02,0000.98
2022-03-24 22:36:00,,0824.2,4.99,0.00,29.0,28.1,00.0,37.9,30.7,08.8,0000.0,0004.34,0002.07,0000.99
2022-03-24 22:37:00,,0824.2,4.99,0.00,29.0,28.1,00.0,37.9,30.7,08.7,0000.0,0004.34,0002.06,0000.99
2022-03-24 22:38:00,,0824.2,5.01,0.00,29.0,28.1,00.0,37.9,30.7,08.5,0000.0,0004.42,0002.10,0000.99
2022-03-24 22:39:00,,0824.2,5.00,0.00,29.0,28.1,00.0,37.9,30.7,08.5,0000.0,0004.63,0002.11,0000.99
2022-03-24 22:40:00,,0824.2,4.99,0.00,29.0,28.1,00.0,37.9,30.7,08.6,0000.0,0005.12,0002.11,0000.99
2022-03-24 22:41:00,,0824.2,5.01,0.00,29.0,28.1,00.0,37.9,30.7,08.6,0000.0,0005.52,0002.09,0000.99
2022-03-24 22:42:00,,0824.1,4.99,0.00,29.0,28.1,00.0,37.9,30.7,08.5,0000.0,0005.67,0002.17,0001.01
2022-03-24 22:43:00,,0824.2,4.99,0.00,29.0,28.1,00.0,37.9,30.7,08.7,0000.0,0005.79,0002.20,0001.02
2022-03-24 22:44:00,,0824.2,5.01,0.00,29.0,28.1,00.0,37.9,30.7,08.8,0000.0,0005.75,0002.17,0001.01
2022-03-24 22:45:00,,0824.2,5.00,0.00,29.0,28.1,00.0,37.9,30.7,08.6,0000.0,0005.67,0002.14,0001.01
2022-03-24 22:46:00,,0824.3,5.01,0.00,29.0,28.1,00.0,37.9,30.7,08.5,0000.0,0005.54,0002.09,0001.02
2022-03-24 22:47:00,,0824.3,5.02,0.00,29.0,28.1,00.0,37.9,30.7,08.7,0000.0,0005.54,0002.04,0001.01
2022-03-24 22:48:00,,0824.3,4.98,0.00,29.0,28.1,00.0,37.9,30.7,08.9,0000.0,0005.53,0002.04,0001.01
2022-03-24 22:49:00,,0824.2,5.00,0.00,29.0,28.1,00.0,37.9,30.7,08.7,0000.0,0005.36,0001.99,0001.01
2022-03-24 22:50:00,,0824.2,4.99,0.00,29.0,28.1,00.0,37.9,30.7,08.6,0000.0,0005.62,0001.94,0001.01
2022-03-24 22:51:00,,0824.3,4.99,0.00,29.0,28.1,00.0,37.9,30.7,08.5,0000.0,0005.14,0001.85,0000.99
2022-03-24 22:52:00,,0824.3,5.01,0.00,29.0,28.1,00.0,37.9,30.7,08.7,0000.0,0004.42,0001.83,0000.99
2022-03-24 22:53:00,,0824.3,5.01,0.00,29.0,28.1,00.0,37.9,30.7,08.6,0000.0,0004.44,0001.83,0000.98
2022-03-24 22:54:00,,0824.3,4.99,0.00,29.0,28.1,00.0,37.9,30.7,08.7,0000.0,0004.57,0001.87,0000.99
2022-03-24 22:55:00,,0824.3,4.98,0.00,29.0,28.1,00.0,37.9,30.7,08.9,0000.0,0004.83,0001.96,0001.01
2022-03-24 22:56:00,,0824.2,5.00,0.00,29.0,28.1,00.0,37.9,30.7,08.8,0000.0,0004.98,0001.99,0001.01
2022-03-24 22:57:00,,0824.2,5.02,0.00,29.0,28.1,00.0,37.9,30.7,08.6,0000.0,0004.97,0002.00,0001.00
2022-03-24 22:58:00,,0824.3,4.98,0.00,29.0,28.1,00.0,37.9,30.7,08.3,0000.0,0005.12,0002.09,0001.02
2022-03-24 22:59:00,,0824.3,5.01,0.00,29.0,28.1,00.0,37.9,30.8,08.4,0000.0,0005.28,0002.13,0001.02
